Вернуться в каталог

QIANFAN-204

АктивенСвязьPO
NORAD 69803·PAYLOAD·🇨🇳 China

Запущен Jul 4, 2026 с Taiyuan Satellite Launch Center

Loading…

Ближайшие Пролёты (ближайшие 24 часа)

TLE

СвежийSource: Space-Track

Эпоха: Sep 14, 2026, 20:29 UTC

1 69803U 26153D   26257.85357021 -.01884936  00000-0 -12921+1 0  9992
2 69803  88.9972 352.0797 0010014 329.3410  30.7185 14.03393807 10263

Отслеживайте QIANFAN-204 в реальном времени с AllMySat

Download on the App Store